UmKA 1 (RS40S)
1 57172U 23091G   26154.86822103  .00006503  00000-0  29867-3 0  9994
2 57172  97.5052 213.6178 0013461 159.8829 200.2940 15.20655465161988
CubeBel-2 (EU11S)
1 57175U 23091K   26154.83311405  .00013242  00000-0  47444-3 0  9991
2 57175  97.5053 217.9337 0010804 155.7475 204.4275 15.28817020162260
RS-38S
1 57189U 23091Z   26154.85615685  .00018862  00000-0  54643-3 0  9997
2 57189  97.5093 224.0784 0008750 117.0121 243.2017 15.35578974162647
SONATE-2
1 59112U 24043Q   26154.33123805  .00043888  00000-0  59231-3 0  9998
2 59112  97.5529 303.8894 0006329 244.1418 115.9184 15.57650064125732
GRBBeta
1 60237U 24128C   26154.74688150  .00004970  00000-0  34206-3 0  9990
2 60237  61.9905 263.4179 0042468 131.8887 228.5842 15.06536912104242
Curium One
1 60242U 24128H   26154.61665572  .00009838  00000-0  56539-3 0  9996
2 60242  61.9791 253.8332 0041719 128.1717 232.3149 15.12312921104404
ROBUSTA-3A
1 60243U 24128J   26154.83857688  .00009406  00000-0  55287-3 0  9992
2 60243  61.9869 255.4438 0043220 125.2822 235.2328 15.11490826104401
CatSat
1 60246U 24125J   26154.65070750  .00056678  00000-0  77347-3 0  9993
2 60246  97.2095   6.9905 0021582 228.0597 131.8820 15.57035250105284
HYPERVIEW-1G (RS66S)
1 61772U 24199AP  26154.83997096  .00122502  00000-0  91298-3 0  9991
2 61772  97.2897  33.9181 0002380 329.8325  30.2801 15.72395897132575
AO-123
1 61781U 24199AY  26154.87150061  .00008148  00000-0  23800-3 0  9991
2 61781  97.3012  23.6631 0013782   4.4976 355.6389 15.35472746131883
JINJUSat 1B
1 63210U 25052A   26153.65775304  .00018574  00000-0  58380-3 0  9992
2 63210  97.4025  50.3981 0005083 122.2531 237.9205 15.33020150 67875
NUSHSAT 1
1 63211U 25052B   26154.24563346  .00022860  00000-0  66578-3 0  9991
2 63211  97.3996  51.5049 0004995 121.6320 238.5412 15.35394932 68007
TEVEL2-4
1 63213U 25052D   26153.24759932  .00019833  00000-0  60334-3 0  9990
2 63213  97.3927  49.6197 0004091 133.0862 227.0724 15.34050425 67823
TEVEL2-5
1 63214U 25052E   26154.24498646  .00020521  00000-0  62652-3 0  9995
2 63214  97.3918  50.5697 0004029 131.3347 228.8243 15.33929648 67972
TEVEL2-6
1 63215U 25052F   26154.25698531  .00020840  00000-0  63697-3 0  9996
2 63215  97.3919  50.5664 0004206 131.8723 228.2879 15.33891425 67978
TEVEL2-1
1 63217U 25052H   26153.69393788  .00019888  00000-0  61840-3 0  9999
2 63217  97.3886  49.6443 0003899 141.0246 219.1278 15.33355434 67873
TEVEL2-3
1 63218U 25052J   26154.21113612  .00019661  00000-0  61001-3 0  9993
2 63218  97.3892  50.1814 0003877 141.5958 218.5561 15.33427572 67951
TEVEL2-2
1 63219U 25052K   26154.60793547  .00019980  00000-0  62041-3 0  9997
2 63219  97.3889  50.5598 0003815 141.3336 218.8180 15.33398071 68010
TEVEL2-9
1 63237U 25052AD  26154.24128318  .00018105  00000-0  59759-3 0  9995
2 63237  97.3950  49.5986 0006417 171.9085 188.2261 15.31447810 67898
TEVEL2-7
1 63238U 25052AE  26154.60632625  .00017541  00000-0  58397-3 0  9997
2 63238  97.3955  49.8841 0006418 171.2563 188.8791 15.31176236 67943
TEVEL2-8
1 63239U 25052AF  26154.22231867  .00017349  00000-0  57820-3 0  9995
2 63239  97.3955  49.4790 0006391 173.0544 187.0787 15.31145489 67887
SPIRONE
1 66657U 25274H   26154.25249325  .00002141  00000-0  20853-3 0  9999
2 66657  97.7484  83.7435 0013546  64.2129 296.0487 14.93484401 28143
K-HERO
1 66660U 25274L   26154.32797628  .00002230  00000-0  21467-3 0  9996
2 66660  97.7488  83.9690 0015391  67.4158 292.8689 14.93903672 28169
SNUGLITE-III DURI
1 66661U 25274M   26154.71801125  .00001618  00000-0  15700-3 0  9990
2 66661  97.7486  84.3740 0016045  66.8521 293.4387 14.93953415 28222
SAKHACUBE-CHOLBON
1 67290U 25313AU  26154.18192812  .00010577  00000-0  43076-3 0  9991
2 67290  97.3924 229.3926 0010172  52.3667 307.8492 15.24621972 23842
RS95S (QMR-KWT-2)
1 67291U 25313AV  26154.18255664  .00015245  00000-0  59595-3 0  9997
2 67291  97.3931 229.5423 0009621  52.2694 307.9415 15.25908449 23856
Ten-Koh2
1 68261U 25241B   26153.84997429  .00006883  00000-0  29609-3 0  9990
2 68261  51.6660  27.8529 0006535 101.1658 259.0055 15.23719437 12723
JACK-002
1 68417U 26067B   26154.59400527  .00007029  00000-0  33700-3 0  9991
2 68417  97.4567 113.3552 0001847  28.8243 331.3093 15.19213934  9888
DISCO 2
1 68431U 26067R   26154.80978149  .00009160  00000-0  44248-3 0  9998
2 68431  97.4599 113.5580 0003890  67.0189 293.1456 15.18859496  9916
HADES-SA (SpinnyONE)
1 68446U 26067AG  26153.33220636  .00018852  00000-0  91402-3 0  9994
2 68446  97.4412 111.8588 0009424 119.3546 240.8630 15.18523368  9674
PARUS-6U1
1 68456U 26067AS  26153.81299181  .00006116  00000-0  30950-3 0  9990
2 68456  97.4553 112.4003 0007595 108.5223 251.6837 15.17355624  9754
SAL-E
1 68458U 26067AU  26153.81044338  .00008298  00000-0  41641-3 0  9996
2 68458  97.4479 112.3434 0007814 115.5131 244.6912 15.17538978  9751
FSI-SAT 2
1 68792U 26088A   26153.34376270  .00004963  00000-0  33735-3 0  9991
2 68792  97.5061 302.9786 0015366 152.9612 207.2419 15.06706036  6054
OrigamiSat 2
1 68795U 26088D   26154.03393240  .00004950  00000-0  32153-3 0  9996
2 68795  97.5061 303.7468 0016403 126.4469 233.8274 15.08375608  6167
ARICA 2
1 68796U 26088E   26154.03132021  .00005848  00000-0  37977-3 0  9991
2 68796  97.5049 303.7417 0016866 125.0855 235.1958 15.08301450  6163
WASEDA-SAT-ZERO-II
1 68797U 26088F   26152.37045560  .00007830  00000-0  50514-3 0  9993
2 68797  97.5037 302.1246 0016669 130.5005 229.7679 15.08438851  5910
MANGARO-II-Piscus
1 68798U 26088G   26153.29130287  .00005214  00000-0  33523-3 0  9992
2 68798  97.5055 303.0466 0020297 130.0536 230.2477 15.08665251  6056
IO-86
1 40931U          25360.30710720  .00000000  00000-0  12800-3 0    00
2 40931   6.0006 332.5373 0012733 338.8432   8.1437 14.79075515    01
LILIUM-4                
1 71922C 26067AC  26089.50133053 -.00014632  00000+0 -74472-3 0    04
2 71922  97.4497  49.1617 0004341   5.9603 355.7042 15.16896692    16
